Time,TemperatureF,DewpointF,PressureIn,WindDirection,WindDirectionDegrees,WindSpeedMPH,WindSpeedGustMPH,Humidity,HourlyPrecipIn,Conditions,Clouds,dailyrainin,SoftwareType,DateUTC
2013-05-09 00:03:00,66.9,63.0,30.06,SW,215,0.0,2.0,87,0.00,,,0.00,weatherlink.com 1.10,2013-05-09 04:03:00,
2013-05-09 00:19:00,67.0,64.0,30.06,NNE,26,0.0,1.0,89,0.00,,,0.00,weatherlink.com 1.10,2013-05-09 04:19:00,
2013-05-09 00:34:00,67.0,64.0,30.05,SW,232,2.0,2.0,90,0.00,,,0.00,weatherlink.com 1.10,2013-05-09 04:34:00,
2013-05-09 00:49:00,66.9,64.0,30.05,SW,228,0.0,2.0,90,0.00,,,0.00,weatherlink.com 1.10,2013-05-09 04:49:00,
2013-05-09 01:04:00,66.7,64.0,30.05,WSW,239,0.0,2.0,90,0.00,,,0.00,weatherlink.com 1.10,2013-05-09 05:04:00,
2013-05-09 01:19:00,66.9,65.0,30.05,SW,234,0.0,4.0,92,0.00,,,0.00,weatherlink.com 1.10,2013-05-09 05:19:00,
2013-05-09 01:34:00,66.9,64.0,30.05,East,96,1.0,5.0,91,0.00,,,0.00,weatherlink.com 1.10,2013-05-09 05:34:00,
2013-05-09 01:49:00,66.6,63.0,30.04,SW,221,1.0,3.0,89,0.00,,,0.00,weatherlink.com 1.10,2013-05-09 05:49:00,
2013-05-09 02:04:00,66.5,63.0,30.04,SW,225,1.0,2.0,89,0.00,,,0.00,weatherlink.com 1.10,2013-05-09 06:04:00,
2013-05-09 02:19:00,66.4,63.0,30.03,SW,231,1.0,3.0,89,0.00,,,0.00,weatherlink.com 1.10,2013-05-09 06:19:00,
2013-05-09 02:34:00,66.4,63.0,30.03,SW,219,0.0,3.0,89,0.00,,,0.00,weatherlink.com 1.10,2013-05-09 06:34:00,
2013-05-09 07:05:00,63.6,59.0,30.07,West,267,2.0,3.0,85,0.00,,,0.00,weatherlink.com 1.10,2013-05-09 11:05:00,
2013-05-09 07:20:00,64.9,60.0,30.07,SW,236,0.0,4.0,83,0.00,,,0.00,weatherlink.com 1.10,2013-05-09 11:20:00,
2013-05-09 07:35:00,65.8,60.0,30.08,WSW,242,1.0,6.0,81,0.00,,,0.00,weatherlink.com 1.10,2013-05-09 11:35:00,
2013-05-09 07:50:00,66.5,60.0,30.08,West,281,1.0,6.0,79,0.00,,,0.00,weatherlink.com 1.10,2013-05-09 11:50:00,
2013-05-09 08:05:00,66.7,60.0,30.08,WSW,246,4.0,6.0,79,0.00,,,0.00,weatherlink.com 1.10,2013-05-09 12:05:00,
2013-05-09 08:20:00,67.3,60.0,30.09,SW,226,5.0,7.0,78,0.00,,,0.00,weatherlink.com 1.10,2013-05-09 12:20:00,
2013-05-09 08:35:00,68.1,61.0,30.09,West,259,3.0,5.0,77,0.00,,,0.00,weatherlink.com 1.10,2013-05-09 12:35:00,
2013-05-09 08:50:00,69.2,61.0,30.10,WNW,290,3.0,5.0,76,0.00,,,0.00,weatherlink.com 1.10,2013-05-09 12:50:00,
2013-05-09 09:06:00,69.9,61.0,30.10,WNW,287,3.0,7.0,73,0.00,,,0.00,weatherlink.com 1.10,2013-05-09 13:06:00,
2013-05-09 09:21:00,70.3,61.0,30.10,SW,228,2.0,5.0,73,0.00,,,0.00,weatherlink.com 1.10,2013-05-09 13:21:00,
2013-05-09 09:36:00,70.7,62.0,30.10,West,270,2.0,6.0,73,0.00,,,0.00,weatherlink.com 1.10,2013-05-09 13:36:00,
2013-05-09 09:51:00,72.0,62.0,30.10,WSW,239,2.0,5.0,71,0.00,,,0.00,weatherlink.com 1.10,2013-05-09 13:51:00,
2013-05-09 10:06:00,73.2,63.0,30.10,NNW,330,0.0,3.0,71,0.00,,,0.00,weatherlink.com 1.10,2013-05-09 14:06:00,
2013-05-09 10:21:00,73.8,63.0,30.10,SW,235,1.0,3.0,69,0.00,,,0.00,weatherlink.com 1.10,2013-05-09 14:21:00,
2013-05-09 10:36:00,74.4,62.0,30.10,West,267,2.0,4.0,65,0.00,,,0.00,weatherlink.com 1.10,2013-05-09 14:36:00,
2013-05-09 10:51:00,74.5,63.0,30.10,SW,226,1.0,4.0,67,0.00,,,0.00,weatherlink.com 1.10,2013-05-09 14:51:00,
2013-05-09 11:06:00,75.3,62.0,30.10,West,276,2.0,4.0,63,0.00,,,0.00,weatherlink.com 1.10,2013-05-09 15:06:00,
2013-05-09 11:21:00,76.8,64.0,30.09,WNW,300,0.0,7.0,64,0.00,,,0.00,weatherlink.com 1.10,2013-05-09 15:21:00,
2013-05-09 11:36:00,77.4,63.0,30.10,SSW,204,0.0,6.0,62,0.00,,,0.00,weatherlink.com 1.10,2013-05-09 15:36:00,
2013-05-09 11:51:00,78.2,63.0,30.10,West,267,1.0,5.0,60,0.00,,,0.00,weatherlink.com 1.10,2013-05-09 15:51:00,
2013-05-09 12:06:00,79.5,63.0,30.10,WNW,293,3.0,5.0,58,0.00,,,0.00,weatherlink.com 1.10,2013-05-09 16:06:00,
2013-05-09 12:21:00,79.7,63.0,30.10,West,277,1.0,8.0,56,0.00,,,0.00,weatherlink.com 1.10,2013-05-09 16:21:00,
2013-05-09 12:36:00,80.7,63.0,30.10,NW,323,3.0,6.0,56,0.00,,,0.00,weatherlink.com 1.10,2013-05-09 16:36:00,
2013-05-09 12:51:00,81.8,64.0,30.10,NW,309,4.0,5.0,55,0.00,,,0.00,weatherlink.com 1.10,2013-05-09 16:51:00,
2013-05-09 13:21:00,81.5,64.0,30.09,WNW,293,1.0,5.0,55,0.00,,,0.00,weatherlink.com 1.10,2013-05-09 17:21:00,
2013-05-09 13:36:00,82.9,64.0,30.09,WNW,287,3.0,5.0,54,0.00,,,0.00,weatherlink.com 1.10,2013-05-09 17:36:00,
2013-05-09 13:51:00,84.9,65.0,30.08,SSE,158,1.0,6.0,52,0.00,,,0.00,weatherlink.com 1.10,2013-05-09 17:51:00,
2013-05-09 14:06:00,85.2,67.0,30.08,SSE,155,4.0,6.0,55,0.00,,,0.00,weatherlink.com 1.10,2013-05-09 18:06:00,
2013-05-09 14:21:00,84.1,66.0,30.08,South,184,4.0,8.0,55,0.00,,,0.00,weatherlink.com 1.10,2013-05-09 18:21:00,
2013-05-09 14:36:00,83.0,66.0,30.08,SSE,165,3.0,7.0,56,0.00,,,0.00,weatherlink.com 1.10,2013-05-09 18:36:00,
2013-05-09 14:51:00,83.3,68.0,30.07,SE,137,5.0,10.0,61,0.00,,,0.00,weatherlink.com 1.10,2013-05-09 18:51:00,